Fulton, TX

3:26 AM CST on February 11, 2016 (GMT -0600)
Aransas County

Weather History for KRKP - January, 2014

Change the Weather History Date:

Thursday, January 9, 2014

  Actual Average Record
Temperature  
Mean Temperature 68 °F -  
Max Temperature 75 °F 61 °F 79 °F (2006)
Min Temperature 62 °F 43 °F 28 °F (1962)
Cooling Degree Days 4    
Growing Degree Days 18 (Base 50)    
Moisture  
Dew Point 61 °F    
Average Humidity 76    
Maximum Humidity 88    
Minimum Humidity 57    
Precipitation  
Precipitation 0.02 in - - ()
Sea Level Pressure  
Sea Level Pressure 30.10 in    
Wind  
Wind Speed 2 mph (SSE)    
Max Wind Speed 7 mph    
Max Gust Speed -    
Visibility 4 miles    
Events Rain    
Averages and records for this station are not official NWS values.
T = Trace of Precipitation, MM = Missing Value Source: NWS Daily Summary

Daily Weather History Graph

Daily Weather History Graph

Search for Another Location

Airport or City:

Trip Planner

Search our weather history database for the weather conditions in past years. The results will help you decide how hot, cold, wet, or windy it might be!

Date:

Astronomy

Jan. 09, 2014 Rise Set
Actual Time 7:21 AM CST 5:49 PM CST
Civil Twilight 6:55 AM CST 6:15 PM CST
Nautical Twilight 6:26 AM CST 6:44 PM CST
Astronomical Twilight 5:58 AM CST 7:12 PM CST
Moon 1:07 PM CST (1/9) 1:42 AM CST (1/9)
Length of Visible Light 11h 19m
Length of Day
10h 28m
Waxing Gibbous, 66% of the Moon is Illuminated
Jan 9
Waxing Gibbous
Jan 15
Full
Jan 23
Last Quarter
Jan 30
New
Feb 6
First Quarter

Hourly Weather History & Observations

Time (CST) Temp. Dew Point Humidity Pressure Visibility Wind Dir Wind Speed Gust Speed Precip Events Conditions
12:28 AM 69.8 °F 60.8 °F 73% 30.12 in 6.0 mi Calm Calm - 0.00 in   Haze
12:53 AM 68.0 °F 60.1 °F 76% 30.12 in 8.0 mi South 3.5 mph - 0.00 in   Overcast
1:08 AM 69.8 °F 60.8 °F 73% 30.11 in 9.0 mi South 4.6 mph - N/A   Mostly Cloudy
1:14 AM 71.6 °F 60.8 °F 69% 30.10 in 5.0 mi South 3.5 mph - N/A   Haze
1:18 AM 71.6 °F 60.8 °F 69% 30.11 in 2.5 mi South 3.5 mph - N/A   Haze
1:20 AM 69.8 °F 60.8 °F 73% 30.11 in 1.8 mi SSW 3.5 mph - N/A   Haze
1:41 AM 68.0 °F 60.8 °F 78% 30.10 in 1.0 mi SSW 4.6 mph - N/A   Haze
1:53 AM 70.0 °F 60.1 °F 71% 30.11 in 1.2 mi SSW 4.6 mph - 0.00 in Rain Light Rain
2:02 AM 69.8 °F 60.8 °F 73% 30.10 in 2.5 mi SSW 5.8 mph - 0.00 in Rain Light Rain
2:10 AM 69.8 °F 60.8 °F 73% 30.10 in 4.0 mi SSW 5.8 mph - 0.00 in Rain Light Rain
2:17 AM 69.8 °F 60.8 °F 73% 30.10 in 3.0 mi SSW 4.6 mph - 0.00 in Rain Light Rain
2:22 AM 69.8 °F 60.8 °F 73% 30.10 in 4.0 mi Variable 4.6 mph - 0.00 in Rain Light Rain
2:26 AM 69.8 °F 60.8 °F 73% 30.10 in 6.0 mi Variable 4.6 mph - 0.00 in Rain Light Rain
2:53 AM 68.0 °F 61.0 °F 78% 30.11 in 9.0 mi SW 4.6 mph - 0.00 in   Overcast
3:32 AM 66.2 °F 60.8 °F 83% 30.10 in 10.0 mi Calm Calm - N/A   Overcast
3:44 AM 66.2 °F 60.8 °F 83% 30.10 in 7.0 mi Calm Calm - 0.00 in Rain Light Rain
3:53 AM 66.0 °F 61.0 °F 84% 30.11 in 5.0 mi Variable 3.5 mph - 0.00 in Rain Light Rain
4:01 AM 66.2 °F 62.6 °F 88% 30.10 in 3.0 mi Calm Calm - 0.01 in Rain Light Rain
4:13 AM 66.2 °F 62.6 °F 88% 30.11 in 7.0 mi SW 3.5 mph - 0.01 in Rain Light Rain
4:20 AM 68.0 °F 62.6 °F 83% 30.10 in 7.0 mi Calm Calm - 0.01 in Rain Light Rain
4:30 AM 68.0 °F 62.6 °F 83% 30.10 in 5.0 mi SW 3.5 mph - 0.01 in Rain Light Rain
4:53 AM 69.1 °F 62.1 °F 78% 30.11 in 10.0 mi SSW 3.5 mph - 0.01 in   Overcast
5:14 AM 69.8 °F 62.6 °F 78% 30.11 in 8.0 mi Calm Calm - 0.00 in Rain Light Rain
5:25 AM 71.6 °F 60.8 °F 69% 30.11 in 6.0 mi NW 3.5 mph - 0.00 in Rain Light Rain
5:31 AM 73.4 °F 59.0 °F 61% 30.11 in 2.5 mi NW 3.5 mph - 0.00 in Rain Light Rain
5:35 AM 75.2 °F 59.0 °F 57% 30.11 in 1.8 mi Calm Calm - 0.00 in Rain Light Rain
5:40 AM 71.6 °F 60.8 °F 69% 30.11 in 2.5 mi Calm Calm - 0.00 in   Haze
5:45 AM 66.2 °F 60.8 °F 83% 30.11 in 7.0 mi Calm Calm - 0.00 in   Overcast
5:53 AM 64.9 °F 61.0 °F 87% 30.12 in 9.0 mi Calm Calm - 0.00 in   Overcast
6:14 AM 64.4 °F 59.0 °F 83% 30.11 in 2.0 mi Calm Calm - N/A   Haze
6:17 AM 64.4 °F 59.0 °F 83% 30.11 in 3.0 mi Calm Calm - N/A   Haze
6:53 AM 63.0 °F 57.9 °F 84% 30.13 in 4.0 mi Calm Calm - N/A   Haze
7:01 AM 62.6 °F 57.2 °F 82% 30.12 in 6.0 mi Calm Calm - N/A   Haze
7:12 AM 71.6 °F 57.2 °F 60% 30.12 in 2.0 mi Calm Calm - N/A   Haze
7:16 AM 69.8 °F 57.2 °F 64% 30.13 in 1.0 mi Calm Calm - N/A   Haze
7:26 AM 64.4 °F 57.2 °F 77% 30.13 in 2.0 mi Calm Calm - N/A   Haze
7:31 AM 64.4 °F 57.2 °F 77% 30.13 in 3.0 mi Calm Calm - N/A   Haze
7:33 AM 62.6 °F 57.2 °F 82% 30.13 in 2.0 mi Calm Calm - N/A   Haze
7:40 AM 62.6 °F 57.2 °F 82% 30.14 in 1.2 mi Calm Calm - N/A   Haze
7:44 AM 62.6 °F 57.2 °F 82% 30.14 in 1.0 mi Calm Calm - N/A   Haze
7:51 AM 64.4 °F 57.2 °F 77% 30.14 in 2.0 mi Calm Calm - N/A   Haze
7:53 AM 64.9 °F 57.0 °F 75% 30.14 in 3.0 mi Calm Calm - N/A   Haze
8:08 AM 64.4 °F 57.2 °F 77% 30.15 in 6.0 mi Calm Calm - 0.00 in Rain Light Rain
8:23 AM 62.6 °F 57.2 °F 82% 30.15 in 9.0 mi Calm Calm - 0.00 in   Overcast
8:29 AM 64.4 °F 57.2 °F 77% 30.15 in 7.0 mi Calm Calm - 0.00 in Rain Light Rain
8:53 AM 64.0 °F 59.0 °F 84% 30.16 in 9.0 mi Calm Calm - 0.00 in   Overcast
9:03 AM 68.0 °F 57.2 °F 68% 30.16 in 5.0 mi Calm Calm - 0.00 in Rain Light Rain
9:12 AM 69.8 °F 57.2 °F 64% 30.16 in 4.0 mi Calm Calm - 0.00 in Rain Light Rain
9:22 AM 69.8 °F 57.2 °F 64% 30.16 in 5.0 mi Calm Calm - 0.00 in Rain Light Rain
9:53 AM 70.0 °F 59.0 °F 68% 30.17 in 2.5 mi SE 3.5 mph - 0.01 in Rain Light Rain
10:02 AM 71.6 °F 59.0 °F 64% 30.17 in 9.0 mi Calm Calm - 0.00 in   Overcast
10:37 AM 69.8 °F 62.6 °F 78% 30.17 in 2.5 mi Calm Calm - 0.00 in Rain Light Rain
10:42 AM 69.8 °F 62.6 °F 78% 30.16 in 3.0 mi Calm Calm - 0.00 in Rain Light Rain
10:49 AM 71.6 °F 62.6 °F 73% 30.16 in 6.0 mi Calm Calm - 0.00 in Rain Light Rain
10:53 AM 71.1 °F 62.1 °F 73% 30.16 in 7.0 mi Calm Calm - 0.00 in   Overcast
11:02 AM 73.4 °F 62.6 °F 69% 30.15 in 8.0 mi Calm Calm - N/A   Overcast
11:12 AM 75.2 °F 62.6 °F 65% 30.15 in 7.0 mi ESE 3.5 mph - N/A   Overcast
11:53 AM - - N/A% 30.14 in 7.0 mi SE 3.5 mph - 0.00 in   Overcast
12:26 PM - - N/A% 30.11 in 2.5 mi South 5.8 mph - 0.00 in Rain Light Rain
12:33 PM - - N/A% 30.11 in 6.0 mi South 5.8 mph - 0.00 in Rain Light Rain
12:53 PM - - N/A% 30.10 in 7.0 mi South 5.8 mph - 0.00 in   Overcast
1:17 PM - - N/A% 30.07 in 9.0 mi Variable 4.6 mph - N/A   Overcast
1:53 PM - - N/A% 30.06 in 10.0 mi South 6.9 mph - N/A   Overcast
2:53 PM - - N/A% 30.06 in 10.0 mi Variable 6.9 mph - N/A   Overcast
3:53 PM - - N/A% 30.05 in 10.0 mi South 5.8 mph - N/A   Overcast
5:53 PM - - N/A% 30.05 in 8.0 mi SE 3.5 mph - N/A   Overcast
6:41 PM 73.4 °F 62.6 °F 69% 30.05 in 2.5 mi ESE 3.5 mph - N/A   Haze
6:48 PM 75.2 °F 62.6 °F 65% 30.05 in 1.8 mi SE 4.6 mph - N/A   Haze
6:53 PM 73.0 °F 62.1 °F 68% 30.06 in 1.5 mi SE 4.6 mph - N/A   Haze
7:01 PM 73.4 °F 62.6 °F 69% 30.05 in 0.8 mi SE 4.6 mph - N/A   Haze
7:19 PM 75.2 °F 62.6 °F 65% 30.06 in 1.0 mi South 3.5 mph - N/A   Haze
7:25 PM 69.8 °F 62.6 °F 78% 30.06 in 2.0 mi SE 3.5 mph - N/A   Haze
7:27 PM 71.6 °F 62.6 °F 73% 30.06 in 3.0 mi Calm Calm - N/A   Haze
7:35 PM 75.2 °F 62.6 °F 65% 30.06 in 4.0 mi SSE 3.5 mph - N/A   Haze
7:42 PM 71.6 °F 62.6 °F 73% 30.06 in 3.0 mi SE 3.5 mph - 0.00 in Rain Light Rain
7:53 PM 70.0 °F 62.1 °F 76% 30.07 in 3.0 mi SE 3.5 mph - 0.00 in   Haze
7:57 PM 71.6 °F 62.6 °F 73% 30.07 in 2.0 mi Calm Calm - N/A   Haze
8:03 PM 71.6 °F 62.6 °F 73% 30.07 in 1.2 mi SE 3.5 mph - N/A   Haze
8:06 PM 71.6 °F 62.6 °F 73% 30.07 in 1.0 mi SE 3.5 mph - N/A   Haze
8:10 PM 69.8 °F 62.6 °F 78% 30.07 in 0.8 mi SE 3.5 mph - N/A   Haze
8:18 PM 69.8 °F 62.6 °F 78% 30.07 in 1.0 mi Calm Calm - N/A   Haze
8:40 PM 71.6 °F 62.6 °F 73% 30.07 in 0.5 mi SE 3.5 mph - N/A   Haze
8:53 PM 72.0 °F 62.1 °F 71% 30.08 in 0.5 mi SE 3.5 mph - N/A   Haze
9:00 PM 71.6 °F 62.6 °F 73% 30.07 in 1.0 mi Calm Calm - 0.00 in Rain Light Rain
9:06 PM 69.8 °F 62.6 °F 78% 30.07 in 1.2 mi Calm Calm - 0.00 in Rain Light Rain
9:14 PM 69.8 °F 62.6 °F 78% 30.06 in 1.5 mi East 3.5 mph - 0.00 in Rain Light Rain
9:25 PM 69.8 °F 62.6 °F 78% 30.07 in 1.2 mi SSE 3.5 mph - 0.00 in   Haze
9:39 PM 71.6 °F 62.6 °F 73% 30.06 in 0.8 mi Calm Calm - 0.00 in Rain Light Rain
9:50 PM 69.8 °F 62.6 °F 78% 30.07 in 0.8 mi Calm Calm - 0.00 in Rain Light Rain
9:53 PM 68.0 °F 62.1 °F 81% 30.07 in 0.8 mi Calm Calm - 0.00 in Rain Light Rain
10:15 PM 69.8 °F 62.6 °F 78% 30.06 in 0.5 mi SSE 3.5 mph - 0.00 in   Haze
10:25 PM 69.8 °F 62.6 °F 78% 30.05 in 0.8 mi Calm Calm - 0.00 in Rain Light Rain
10:37 PM 69.8 °F 62.6 °F 78% 30.05 in 1.0 mi Calm Calm - 0.00 in Rain Light Rain
10:45 PM 66.2 °F 62.6 °F 88% 30.05 in 1.0 mi Calm Calm - 0.00 in   Mist
10:53 PM 66.9 °F 63.0 °F 87% 30.05 in 1.0 mi Calm Calm - 0.00 in   Mist
11:01 PM 68.0 °F 62.6 °F 83% 30.04 in 0.8 mi Calm Calm - N/A   Haze
11:15 PM 66.2 °F 62.6 °F 88% 30.04 in 0.5 mi Calm Calm - N/A   Haze
11:19 PM 68.0 °F 62.6 °F 83% 30.03 in 0.2 mi Calm Calm - N/A   Haze
11:23 PM 66.2 °F 62.6 °F 88% 30.03 in 0.2 mi Calm Calm - N/A   Haze
11:53 PM 71.1 °F 63.0 °F 75% 30.04 in 0.5 mi East 3.5 mph - N/A   Haze
11:57 PM 71.6 °F 62.6 °F 73% 30.03 in 0.5 mi East 3.5 mph - N/A   Haze